Weather History for Lone Rock, WI

Change the Weather History Date:

Thursday, May 15, 2014

  Actual Average Record
Temperature  
Mean Temperature 49 °F -  
Max Temperature 55 °F 66 °F 89 °F (2012)
Min Temperature 44 °F 45 °F 33 °F (1997)
Degree Days  
Heating Degree Days 16    
Moisture  
Dew Point 33 °F    
Average Humidity 55    
Maximum Humidity 73    
Minimum Humidity 41    
Precipitation  
Precipitation 0.00 in - - ()
Sea Level Pressure  
Sea Level Pressure 30.02 in    
Wind  
Wind Speed 10 mph (NNE)    
Max Wind Speed 15 mph    
Max Gust Speed -    
Visibility 10 miles    
Events      
Averages and records for this station are not official NWS values.
T = Trace of Precipitation, MM = Missing Value Source: NWS Daily Summary

Daily Weather History Graph

Daily Weather History Graph

Search for Another Location

Airport:

Trip Planner

Search our weather history database for the weather conditions in past years. The results will help you decide how hot, cold, wet, or windy it might be!

Date:

Astronomy

May. 15, 2014 Rise Set
Actual Time 5:36 AM CDT 8:17 PM CDT
Civil Twilight 5:04 AM CDT 8:50 PM CDT
Nautical Twilight 4:22 AM CDT 9:32 PM CDT
Astronomical Twilight 3:35 AM CDT 10:19 PM CDT
Moon 9:25 PM CDT (5/15) 6:24 AM CDT (5/15)
Length of Visible Light 15h 46m
Length of Day
14h 41m
Full, 99% of the Moon is Illuminated
May 15
Full
May 21
Last Quarter
May 28
New
Jun 5
First Quarter
Jun 12
Full

Hourly Weather History & Observations

Time (CDT) Temp. Windchill Dew Point Humidity Pressure Visibility Wind Dir Wind Speed Gust Speed Precip Events Conditions
12:56 AM 52.0 °F - 30.9 °F 45% 30.03 in 10.0 mi North 11.5 mph - N/A   Overcast
1:56 AM 52.0 °F - 30.9 °F 45% 30.01 in 10.0 mi North 9.2 mph - N/A   Mostly Cloudy
2:56 AM 52.0 °F - 30.9 °F 45% 30.00 in 10.0 mi NNE 11.5 mph - N/A   Overcast
3:56 AM 48.9 °F - 35.1 °F 59% 30.01 in 10.0 mi East 13.8 mph - N/A   Overcast
4:56 AM 46.9 °F - 35.1 °F 63% 30.01 in 10.0 mi East 13.8 mph - N/A   Overcast
5:56 AM 45.0 °F 38.9 °F 34.0 °F 65% 30.02 in 10.0 mi ENE 12.7 mph - N/A   Scattered Clouds
6:56 AM 44.1 °F 38.6 °F 35.1 °F 71% 30.02 in 10.0 mi East 10.4 mph - N/A   Overcast
7:46 AM 44.1 °F 39.5 °F 35.1 °F 71% 30.04 in 10.0 mi NE 8.1 mph - N/A   Overcast
7:56 AM 44.1 °F 39.5 °F 36.0 °F 73% 30.04 in 10.0 mi ENE 8.1 mph - N/A   Overcast
8:56 AM 45.0 °F 41.8 °F 36.0 °F 71% 30.04 in 10.0 mi NNE 5.8 mph - N/A   Overcast
9:56 AM 46.0 °F 41.4 °F 36.0 °F 68% 30.05 in 10.0 mi NNE 9.2 mph - N/A   Overcast
10:56 AM 46.9 °F - 37.0 °F 68% 30.04 in 10.0 mi Calm Calm - N/A   Overcast
11:34 AM 50.0 °F - 37.0 °F 61% 30.03 in 10.0 mi NNW 5.8 mph - N/A   Overcast
11:56 AM 50.0 °F - 37.0 °F 61% 30.02 in 10.0 mi North 3.5 mph - N/A   Overcast
12:56 PM 51.1 °F - 35.1 °F 54% 30.01 in 10.0 mi Variable 5.8 mph - N/A   Overcast
1:56 PM 53.1 °F - 34.0 °F 48% 29.99 in 10.0 mi North 8.1 mph - N/A   Overcast
2:56 PM 53.1 °F - 35.1 °F 50% 29.99 in 10.0 mi NW 5.8 mph - 0.00 in   Overcast
3:56 PM 54.0 °F - 33.1 °F 45% 29.98 in 10.0 mi West 5.8 mph - N/A   Mostly Cloudy
4:56 PM 53.1 °F - 30.9 °F 43% 29.99 in 10.0 mi NNW 6.9 mph - N/A   Overcast
5:56 PM 54.0 °F - 30.9 °F 41% 29.99 in 10.0 mi North 8.1 mph - N/A   Overcast
6:56 PM 53.1 °F - 30.0 °F 41% 30.00 in 10.0 mi North 11.5 mph - N/A   Overcast
7:56 PM 52.0 °F - 30.0 °F 43% 30.01 in 10.0 mi North 5.8 mph - N/A   Overcast
8:56 PM 51.1 °F - 30.9 °F 46% 30.02 in 10.0 mi North 6.9 mph - N/A   Overcast
9:56 PM 50.0 °F - 30.0 °F 46% 30.03 in 10.0 mi North 12.7 mph - N/A   Mostly Cloudy
10:56 PM 48.9 °F - 28.9 °F 46% 30.04 in 10.0 mi NNE 15.0 mph - N/A   Overcast
11:56 PM 46.9 °F - 28.0 °F 48% 30.04 in 10.0 mi NNE 13.8 mph - N/A   Overcast